| time (UTC) | temp F | wind direction | speed knots | gust knots | rain 1hr in | rain 24hr in | rain mn in | humidity % | barometer mb |
| 20260906165044 | 95 | 257 | 0.9 | 6.1 | 0.00 | 0.10 | 0.00 | 48 | 1016.7 |
| 20260906164600 | 95 | 17 | 1.7 | 6.1 | 0.00 | 0.10 | 0.00 | 47 | 1016.7 |
| 20260906164044 | 95 | 350 | 0.0 | 3.5 | 0.00 | 0.10 | 0.00 | 47 | 1016.7 |
| 20260906163547 | 95 | 337 | 0.9 | 3.5 | 0.00 | 0.10 | 0.00 | 49 | 1016.7 |
| 20260906163106 | 95 | 339 | 0.9 | 3.5 | 0.00 | 0.10 | 0.00 | 49 | 1016.9 |
| 20260906162544 | 95 | 346 | 0.0 | 3.5 | 0.00 | 0.10 | 0.00 | 49 | 1016.8 |
| 20260906162043 | 95 | 160 | 0.9 | 4.3 | 0.00 | 0.10 | 0.00 | 49 | 1016.8 |
| 20260906161607 | 94 | 313 | 0.0 | 4.3 | 0.00 | 0.10 | 0.00 | 49 | 1016.8 |
| 20260906161043 | 94 | 344 | 0.9 | 3.5 | 0.00 | 0.10 | 0.00 | 52 | 1016.8 |
| 20260906160543 | 94 | 113 | 0.0 | 3.5 | 0.00 | 0.10 | 0.00 | 50 | 1016.9 |
| 20260906160106 | 93 | 352 | 0.9 | 3.5 | 0.00 | 0.10 | 0.00 | 50 | 1016.8 |
| 20260906155543 | 93 | 130 | 1.7 | 4.3 | 0.00 | 0.10 | 0.00 | 51 | 1016.8 |
| 20260906155043 | 93 | 146 | 0.0 | 5.2 | 0.00 | 0.10 | 0.00 | 53 | 1016.8 |
| 20260906154604 | 93 | 139 | 0.0 | 5.2 | 0.00 | 0.10 | 0.00 | 54 | 1016.8 |
| 20260906154044 | 92 | 167 | 0.9 | 3.5 | 0.00 | 0.10 | 0.00 | 55 | 1016.8 |
| 20260906153547 | 92 | 159 | 1.7 | 3.5 | 0.00 | 0.10 | 0.00 | 53 | 1016.7 |
| 20260906153127 | 92 | 150 | 0.0 | 6.1 | 0.00 | 0.10 | 0.00 | 55 | 1016.7 |
| 20260906152544 | 92 | 144 | 0.9 | 6.1 | 0.00 | 0.10 | 0.00 | 55 | 1016.8 |
| 20260906152043 | 91 | 180 | 0.9 | 6.1 | 0.00 | 0.10 | 0.00 | 55 | 1016.6 |
| 20260906151604 | 91 | 126 | 0.0 | 2.6 | 0.00 | 0.10 | 0.00 | 56 | 1016.7 |
| 20260906151046 | 91 | 141 | 0.9 | 4.3 | 0.00 | 0.10 | 0.00 | 57 | 1016.7 |
| 20260906150724 | 90 | 0 | 0.0 | 4.3 | 0.00 | 0.10 | 0.00 | 57 | 1016.6 |
| 20260906150106 | 91 | 0 | 0.0 | 0.9 | 0.00 | 0.10 | 0.00 | 58 | 1016.7 |
| 20260906145547 | 90 | 0 | 0.0 | 0.9 | 0.00 | 0.10 | 0.00 | 58 | 1016.6 |
| 20260906145050 | 90 | 0 | 0.0 | 2.6 | 0.00 | 0.10 | 0.00 | 59 | 1016.6 |
| 20260906144606 | 89 | 148 | 0.0 | 2.6 | 0.00 | 0.10 | 0.00 | 61 | 1016.6 |
| 20260906144043 | 89 | 153 | 0.9 | 2.6 | 0.00 | 0.10 | 0.00 | 61 | 1016.6 |
| 20260906143543 | 88 | 0 | 0.0 | 1.7 | 0.00 | 0.10 | 0.00 | 62 | 1016.6 |
| 20260906143107 | 88 | 0 | 0.0 | 1.7 | 0.00 | 0.10 | 0.00 | 61 | 1016.6 |
| 20260906142543 | 87 | 157 | 0.0 | 0.9 | 0.00 | 0.10 | 0.00 | 64 | 1016.6 |
| 20260906142043 | 87 | 0 | 0.0 | 0.9 | 0.00 | 0.10 | 0.00 | 65 | 1016.6 |
| 20260906141616 | 86 | 0 | 0.0 | 2.6 | 0.00 | 0.10 | 0.00 | 67 | 1016.6 |
| 20260906141043 | 85 | 137 | 0.0 | 2.6 | 0.00 | 0.10 | 0.00 | 66 | 1016.5 |
| 20260906140543 | 84 | 82 | 0.0 | 1.7 | 0.00 | 0.10 | 0.00 | 67 | 1016.5 |
| 20260906140110 | 84 | 150 | 0.0 | 1.7 | 0.00 | 0.10 | 0.00 | 68 | 1016.5 |
| 20260906135543 | 83 | 0 | 0.0 | 0.9 | 0.00 | 0.10 | 0.00 | 70 | 1016.4 |
| 20260906135043 | 82 | 141 | 0.0 | 0.0 | 0.00 | 0.10 | 0.00 | 72 | 1016.4 |
| 20260906134624 | 81 | 0 | 0.0 | 0.0 | 0.00 | 0.10 | 0.00 | 73 | 1016.4 |
| 20260906134046 | 80 | 0 | 0.0 | 0.0 | 0.00 | 0.10 | 0.00 | 74 | 1016.3 |
| 20260906133542 | 79 | 0 | 0.0 | 0.9 | 0.00 | 0.10 | 0.00 | 76 | 1016.4 |
| 20260906133103 | 78 | 0 | 0.0 | 2.6 | 0.00 | 0.10 | 0.00 | 76 | 1016.3 |
| 20260906132543 | 78 | 130 | 0.0 | 2.6 | 0.00 | 0.10 | 0.00 | 76 | 1016.3 |
| 20260906132043 | 78 | 0 | 0.0 | 1.7 | 0.00 | 0.10 | 0.00 | 77 | 1016.3 |
| 20260906131603 | 77 | 0 | 0.0 | 1.7 | 0.00 | 0.10 | 0.00 | 78 | 1016.3 |
| 20260906131043 | 76 | 127 | 0.0 | 1.7 | 0.00 | 0.10 | 0.00 | 78 | 1016.3 |
| 20260906130543 | 76 | 0 | 0.0 | 0.9 | 0.00 | 0.10 | 0.00 | 79 | 1016.2 |
| 20260906130108 | 75 | 0 | 0.0 | 0.9 | 0.00 | 0.10 | 0.00 | 79 | 1016.2 |
| 20260906125545 | 75 | 0 | 0.0 | 0.9 | 0.00 | 0.10 | 0.00 | 79 | 1016.2 |
| 20260906125043 | 75 | 0 | 0.0 | 0.9 | 0.00 | 0.10 | 0.00 | 79 | 1016.2 |
| 20260906124609 | 75 | 0 | 0.0 | 0.9 | 0.00 | 0.10 | 0.00 | 80 | 1016.2 |
| 20260906124044 | 75 | 0 | 0.0 | 0.9 | 0.00 | 0.10 | 0.00 | 79 | 1016.1 |
| 20260906123542 | 74 | 12 | 0.0 | 1.7 | 0.00 | 0.10 | 0.00 | 80 | 1016.0 |
| 20260906123113 | 74 | 231 | 0.0 | 1.7 | 0.00 | 0.10 | 0.00 | 80 | 1015.8 |
| 20260906122544 | 74 | 53 | 0.0 | 0.9 | 0.00 | 0.10 | 0.00 | 80 | 1015.8 |
| 20260906122044 | 74 | 0 | 0.0 | 0.9 | 0.00 | 0.10 | 0.00 | 80 | 1015.7 |
| 20260906121606 | 74 | 0 | 0.0 | 0.9 | 0.00 | 0.10 | 0.00 | 81 | 1015.7 |
| 20260906121046 | 73 | 0 | 0.0 | 0.9 | 0.00 | 0.10 | 0.00 | 81 | 1015.7 |
| 20260906120544 | 73 | 0 | 0.0 | 0.0 | 0.00 | 0.10 | 0.00 | 81 | 1015.7 |
| 20260906120108 | 73 | 0 | 0.0 | 0.0 | 0.00 | 0.10 | 0.00 | 81 | 1015.6 |
| 20260906115546 | 73 | 0 | 0.0 | 0.0 | 0.00 | 0.10 | 0.00 | 81 | 1015.5 |
| 20260906115043 | 73 | 0 | 0.0 | 0.0 | 0.00 | 0.10 | 0.00 | 81 | 1015.5 |
| 20260906114629 | 73 | 0 | 0.0 | 0.0 | 0.00 | 0.10 | 0.00 | 81 | 1015.5 |
| 20260906114043 | 73 | 0 | 0.0 | 0.0 | 0.00 | 0.10 | 0.00 | 81 | 1015.4 |
| 20260906113543 | 73 | 0 | 0.0 | 0.0 | 0.00 | 0.10 | 0.00 | 82 | 1015.3 |
| 20260906113103 | 73 | 0 | 0.0 | 0.0 | 0.00 | 0.10 | 0.00 | 81 | 1015.2 |
| 20260906112543 | 73 | 0 | 0.0 | 0.0 | 0.00 | 0.10 | 0.00 | 81 | 1015.3 |
| 20260906112044 | 73 | 0 | 0.0 | 0.0 | 0.00 | 0.10 | 0.00 | 81 | 1015.2 |
| 20260906111625 | 73 | 0 | 0.0 | 0.0 | 0.00 | 0.10 | 0.00 | 81 | 1015.2 |
| 20260906111046 | 73 | 0 | 0.0 | 0.0 | 0.00 | 0.10 | 0.00 | 82 | 1015.1 |
| 20260906110544 | 72 | 0 | 0.0 | 0.0 | 0.00 | 0.10 | 0.00 | 82 | 1015.2 |
| 20260906110057 | 72 | 0 | 0.0 | 0.0 | 0.00 | 0.10 | 0.00 | 83 | 1015.2 |
| 20260906105543 | 72 | 0 | 0.0 | 0.0 | 0.00 | 0.10 | 0.00 | 83 | 1015.3 |
| 20260906105044 | 72 | 0 | 0.0 | 0.0 | 0.00 | 0.10 | 0.00 | 83 | 1015.2 |
| 20260906104608 | 72 | 0 | 0.0 | 0.0 | 0.00 | 0.10 | 0.00 | 83 | 1015.4 |
| 20260906104043 | 72 | 0 | 0.0 | 0.0 | 0.00 | 0.10 | 0.00 | 82 | 1015.2 |
| 20260906103543 | 73 | 0 | 0.0 | 0.0 | 0.00 | 0.10 | 0.00 | 81 | 1015.2 |
| 20260906103100 | 73 | 0 | 0.0 | 0.0 | 0.00 | 0.10 | 0.00 | 81 | 1015.2 |
| 20260906102544 | 73 | 0 | 0.0 | 0.0 | 0.00 | 0.10 | 0.00 | 81 | 1015.3 |
| 20260906102045 | 73 | 0 | 0.0 | 0.0 | 0.00 | 0.10 | 0.00 | 80 | 1015.2 |
| 20260906101600 | 73 | 0 | 0.0 | 0.0 | 0.00 | 0.10 | 0.00 | 80 | 1015.2 |
| 20260906101045 | 73 | 0 | 0.0 | 0.0 | 0.00 | 0.10 | 0.00 | 80 | 1015.2 |
| 20260906100545 | 73 | 0 | 0.0 | 0.0 | 0.00 | 0.10 | 0.00 | 80 | 1015.2 |
| 20260906100058 | 73 | 0 | 0.0 | 0.0 | 0.00 | 0.10 | 0.00 | 80 | 1015.1 |
| 20260906095545 | 73 | 0 | 0.0 | 0.0 | 0.00 | 0.10 | 0.00 | 80 | 1015.1 |
| 20260906095044 | 73 | 0 | 0.0 | 0.0 | 0.00 | 0.10 | 0.00 | 80 | 1015.0 |
| 20260906094602 | 73 | 0 | 0.0 | 0.0 | 0.00 | 0.10 | 0.00 | 80 | 1015.0 |
| 20260906094045 | 73 | 0 | 0.0 | 0.0 | 0.00 | 0.10 | 0.00 | 80 | 1014.9 |
| 20260906093544 | 73 | 0 | 0.0 | 0.0 | 0.00 | 0.10 | 0.00 | 80 | 1014.9 |
| 20260906093106 | 73 | 0 | 0.0 | 0.0 | 0.00 | 0.10 | 0.00 | 80 | 1014.9 |
| 20260906092543 | 73 | 0 | 0.0 | 0.0 | 0.00 | 0.10 | 0.00 | 79 | 1014.8 |
| 20260906092044 | 73 | 0 | 0.0 | 0.0 | 0.00 | 0.10 | 0.00 | 79 | 1014.7 |
| 20260906091600 | 73 | 0 | 0.0 | 0.0 | 0.00 | 0.10 | 0.00 | 78 | 1014.6 |
| 20260906091044 | 74 | 0 | 0.0 | 0.0 | 0.00 | 0.10 | 0.00 | 78 | 1014.6 |
| 20260906090543 | 74 | 0 | 0.0 | 0.0 | 0.00 | 0.10 | 0.00 | 78 | 1014.6 |
| 20260906090116 | 74 | 0 | 0.0 | 0.0 | 0.00 | 0.10 | 0.00 | 78 | 1014.6 |
| 20260906085544 | 74 | 0 | 0.0 | 0.0 | 0.00 | 0.10 | 0.00 | 78 | 1014.6 |
| 20260906085041 | 74 | 0 | 0.0 | 0.0 | 0.00 | 0.10 | 0.00 | 78 | 1014.6 |
| 20260906084611 | 74 | 0 | 0.0 | 0.0 | 0.00 | 0.10 | 0.00 | 77 | 1014.7 |
| 20260906084042 | 75 | 0 | 0.0 | 0.0 | 0.00 | 0.10 | 0.00 | 76 | 1014.6 |
| 20260906083544 | 75 | 0 | 0.0 | 0.0 | 0.00 | 0.10 | 0.00 | 75 | 1014.7 |
| 20260906083100 | 76 | 0 | 0.0 | 0.0 | 0.00 | 0.10 | 0.00 | 74 | 1014.7 |
| 20260906082541 | 76 | 0 | 0.0 | 0.0 | 0.00 | 0.10 | 0.00 | 73 | 1014.6 |
| 20260906082044 | 76 | 0 | 0.0 | 0.0 | 0.00 | 0.10 | 0.00 | 72 | 1014.6 |
| 20260906081601 | 76 | 0 | 0.0 | 0.0 | 0.00 | 0.10 | 0.00 | 72 | 1014.5 |
| 20260906081041 | 76 | 0 | 0.0 | 0.0 | 0.00 | 0.10 | 0.00 | 72 | 1014.6 |
| 20260906080542 | 77 | 0 | 0.0 | 0.0 | 0.00 | 0.10 | 0.00 | 71 | 1014.5 |
| 20260906075541 | 76 | 0 | 0.0 | 0.0 | 0.00 | 0.10 | 0.00 | 72 | 1014.6 |
| 20260906075041 | 76 | 0 | 0.0 | 0.0 | 0.00 | 0.10 | 0.00 | 71 | 1014.6 |
| 20260906074612 | 77 | 0 | 0.0 | 0.0 | 0.00 | 0.10 | 0.00 | 71 | 1014.7 |
| 20260906074041 | 77 | 0 | 0.0 | 0.0 | 0.00 | 0.10 | 0.00 | 71 | 1014.6 |
| 20260906073544 | 77 | 0 | 0.0 | 0.0 | 0.00 | 0.10 | 0.00 | 71 | 1014.7 |
| 20260906073107 | 77 | 0 | 0.0 | 0.0 | 0.00 | 0.10 | 0.00 | 71 | 1014.7 |
| 20260906072547 | 77 | 0 | 0.0 | 0.0 | 0.00 | 0.10 | 0.00 | 70 | 1014.8 |
| 20260906072041 | 77 | 0 | 0.0 | 0.0 | 0.00 | 0.10 | 0.00 | 70 | 1014.8 |
| 20260906071558 | 77 | 0 | 0.0 | 0.0 | 0.00 | 0.10 | 0.00 | 70 | 1014.8 |
| 20260906071042 | 77 | 0 | 0.0 | 0.0 | 0.00 | 0.10 | 0.00 | 71 | 1014.8 |
| 20260906070542 | 78 | 0 | 0.0 | 0.0 | 0.00 | 0.10 | 0.00 | 70 | 1014.9 |
| 20260906070138 | 78 | 0 | 0.0 | 0.0 | 0.00 | 0.10 | 0.00 | 70 | 1014.9 |
| 20260906065543 | 78 | 0 | 0.0 | 0.9 | 0.00 | 0.10 | 0.00 | 69 | 1014.9 |
| 20260906065041 | 79 | 0 | 0.0 | 0.9 | 0.00 | 0.10 | 0.00 | 68 | 1015.0 |
| 20260906064601 | 79 | 0 | 0.0 | 1.7 | 0.00 | 0.10 | 0.00 | 68 | 1015.0 |
| 20260906064041 | 79 | 0 | 0.0 | 1.7 | 0.00 | 0.10 | 0.00 | 68 | 1015.1 |
| 20260906063541 | 79 | 30 | 0.0 | 1.7 | 0.00 | 0.10 | 0.00 | 68 | 1015.1 |
| 20260906063104 | 79 | 26 | 0.0 | 0.9 | 0.00 | 0.10 | 0.00 | 68 | 1015.1 |
| 20260906062541 | 79 | 36 | 0.0 | 0.9 | 0.00 | 0.10 | 0.00 | 69 | 1015.2 |
| 20260906062042 | 79 | 0 | 0.0 | 0.9 | 0.00 | 0.10 | 0.00 | 69 | 1015.3 |
| 20260906061634 | 79 | 0 | 0.0 | 0.9 | 0.00 | 0.10 | 0.00 | 69 | 1015.2 |
| 20260906061041 | 79 | 0 | 0.0 | 0.9 | 0.00 | 0.10 | 0.00 | 68 | 1015.2 |
| 20260906060541 | 79 | 0 | 0.0 | 0.9 | 0.00 | 0.10 | 0.00 | 69 | 1015.2 |
| 20260906060059 | 79 | 0 | 0.0 | 0.9 | 0.00 | 0.10 | 0.00 | 68 | 1015.2 |
| 20260906055541 | 79 | 0 | 0.0 | 0.9 | 0.00 | 0.10 | 0.00 | 69 | 1015.3 |
| 20260906055042 | 79 | 0 | 0.0 | 0.9 | 0.00 | 0.10 | 0.00 | 69 | 1015.2 |
| 20260906054604 | 79 | 0 | 0.0 | 0.0 | 0.00 | 0.10 | 0.00 | 69 | 1015.2 |
| 20260906054046 | 79 | 0 | 0.0 | 0.0 | 0.00 | 0.10 | 0.00 | 69 | 1015.2 |
| 20260906053545 | 78 | 0 | 0.0 | 0.0 | 0.00 | 0.10 | 0.00 | 70 | 1015.1 |
| 20260906053105 | 78 | 0 | 0.0 | 0.0 | 0.00 | 0.10 | 0.00 | 70 | 1015.1 |
| 20260906052546 | 78 | 0 | 0.0 | 0.0 | 0.00 | 0.10 | 0.00 | 70 | 1015.0 |
| 20260906052046 | 78 | 0 | 0.0 | 0.0 | 0.00 | 0.10 | 0.00 | 71 | 1015.1 |
| 20260906051606 | 78 | 0 | 0.0 | 0.0 | 0.00 | 0.10 | 0.00 | 70 | 1015.0 |
| 20260906051045 | 78 | 0 | 0.0 | 0.0 | 0.00 | 0.10 | 0.00 | 70 | 1014.9 |
| 20260906050545 | 78 | 0 | 0.0 | 0.0 | 0.00 | 0.10 | 0.00 | 71 | 1015.0 |
| 20260906050116 | 78 | 0 | 0.0 | 0.0 | 0.00 | 0.10 | 0.00 | 72 | 1015.0 |
| 20260906045544 | 78 | 0 | 0.0 | 0.0 | 0.00 | 0.10 | 0.10 | 72 | 1015.0 |
| 20260906045045 | 77 | 0 | 0.0 | 0.0 | 0.00 | 0.10 | 0.10 | 72 | 1014.9 |
| 20260906044603 | 77 | 0 | 0.0 | 0.0 | 0.00 | 0.10 | 0.10 | 72 | 1014.9 |
| 20260906044045 | 77 | 0 | 0.0 | 0.0 | 0.00 | 0.10 | 0.10 | 73 | 1014.9 |
| 20260906043545 | 77 | 0 | 0.0 | 0.0 | 0.00 | 0.10 | 0.10 | 73 | 1015.0 |
| 20260906043112 | 77 | 0 | 0.0 | 0.0 | 0.00 | 0.10 | 0.10 | 72 | 1015.1 |
| 20260906042545 | 77 | 0 | 0.0 | 0.0 | 0.00 | 0.10 | 0.10 | 72 | 1015.1 |
| 20260906042046 | 77 | 0 | 0.0 | 0.0 | 0.00 | 0.10 | 0.10 | 72 | 1015.1 |
| 20260906041608 | 78 | 0 | 0.0 | 0.0 | 0.00 | 0.10 | 0.10 | 73 | 1015.2 |
| 20260906041046 | 78 | 0 | 0.0 | 0.0 | 0.00 | 0.10 | 0.10 | 70 | 1015.1 |
| 20260906040545 | 78 | 0 | 0.0 | 0.0 | 0.00 | 0.10 | 0.10 | 70 | 1015.0 |
| 20260906040120 | 78 | 0 | 0.0 | 0.0 | 0.00 | 0.10 | 0.10 | 70 | 1015.0 |
| 20260906035545 | 78 | 0 | 0.0 | 0.0 | 0.00 | 0.10 | 0.10 | 70 | 1015.0 |
| 20260906035047 | 78 | 0 | 0.0 | 0.0 | 0.00 | 0.10 | 0.10 | 69 | 1014.9 |
| 20260906034607 | 78 | 0 | 0.0 | 0.0 | 0.00 | 0.10 | 0.10 | 69 | 1015.0 |
| 20260906034045 | 78 | 0 | 0.0 | 0.0 | 0.00 | 0.10 | 0.10 | 68 | 1015.1 |
| 20260906033545 | 78 | 0 | 0.0 | 0.0 | 0.00 | 0.10 | 0.10 | 68 | 1014.9 |
| 20260906033101 | 78 | 0 | 0.0 | 0.0 | 0.00 | 0.10 | 0.10 | 68 | 1014.9 |
| 20260906032548 | 78 | 0 | 0.0 | 0.0 | 0.00 | 0.10 | 0.10 | 69 | 1014.9 |
| 20260906032045 | 78 | 0 | 0.0 | 0.0 | 0.00 | 0.10 | 0.10 | 69 | 1014.8 |
| 20260906031610 | 78 | 0 | 0.0 | 0.0 | 0.00 | 0.10 | 0.10 | 69 | 1014.8 |
| 20260906031045 | 78 | 0 | 0.0 | 0.0 | 0.00 | 0.10 | 0.10 | 71 | 1014.8 |
| 20260906030546 | 79 | 0 | 0.0 | 0.0 | 0.00 | 0.10 | 0.10 | 69 | 1014.7 |
| 20260906030110 | 80 | 0 | 0.0 | 0.0 | 0.00 | 0.10 | 0.10 | 68 | 1014.6 |
| 20260906025546 | 80 | 0 | 0.0 | 0.9 | 0.00 | 0.10 | 0.10 | 64 | 1014.4 |
| 20260906025046 | 80 | 0 | 0.0 | 0.9 | 0.00 | 0.10 | 0.10 | 64 | 1014.4 |
| 20260906024601 | 80 | 0 | 0.0 | 0.9 | 0.00 | 0.10 | 0.10 | 64 | 1014.4 |
| 20260906024047 | 80 | 0 | 0.0 | 0.9 | 0.00 | 0.10 | 0.10 | 65 | 1014.3 |
| 20260906023548 | 80 | 0 | 0.0 | 0.0 | 0.00 | 0.10 | 0.10 | 66 | 1014.3 |
| 20260906023127 | 79 | 0 | 0.0 | 0.9 | 0.00 | 0.10 | 0.10 | 66 | 1014.3 |
| 20260906022547 | 80 | 0 | 0.0 | 0.9 | 0.00 | 0.10 | 0.10 | 66 | 1014.3 |
| 20260906022043 | 80 | 0 | 0.0 | 0.9 | 0.00 | 0.10 | 0.10 | 66 | 1014.3 |
| 20260906021605 | 80 | 0 | 0.0 | 0.9 | 0.00 | 0.10 | 0.10 | 66 | 1014.3 |
| 20260906021043 | 80 | 0 | 0.0 | 0.9 | 0.00 | 0.10 | 0.10 | 66 | 1014.2 |
| 20260906020543 | 80 | 0 | 0.0 | 0.9 | 0.00 | 0.10 | 0.10 | 67 | 1014.0 |
| 20260906020108 | 80 | 0 | 0.0 | 0.0 | 0.00 | 0.10 | 0.10 | 67 | 1014.0 |
| 20260906015545 | 79 | 0 | 0.0 | 0.0 | 0.00 | 0.10 | 0.10 | 67 | 1013.9 |
| 20260906015044 | 80 | 0 | 0.0 | 0.0 | 0.00 | 0.10 | 0.10 | 69 | 1014.0 |
| 20260906014626 | 80 | 0 | 0.0 | 0.9 | 0.00 | 0.10 | 0.10 | 68 | 1013.9 |
| 20260906014043 | 80 | 0 | 0.0 | 0.9 | 0.00 | 0.10 | 0.10 | 69 | 1013.8 |
| 20260906013547 | 80 | 0 | 0.0 | 0.9 | 0.00 | 0.10 | 0.10 | 69 | 1013.8 |
| 20260906013108 | 80 | 0 | 0.0 | 0.9 | 0.00 | 0.10 | 0.10 | 69 | 1013.8 |
| 20260906012543 | 80 | 0 | 0.0 | 0.9 | 0.00 | 0.10 | 0.10 | 70 | 1013.8 |
| 20260906012044 | 80 | 146 | 0.0 | 0.9 | 0.00 | 0.10 | 0.10 | 69 | 1013.8 |
| 20260906011559 | 80 | 0 | 0.0 | 0.0 | 0.00 | 0.10 | 0.10 | 69 | 1013.7 |
| 20260906011044 | 81 | 0 | 0.0 | 0.9 | 0.00 | 0.10 | 0.10 | 68 | 1013.6 |
| 20260906010544 | 81 | 0 | 0.0 | 0.9 | 0.00 | 0.10 | 0.10 | 67 | 1013.8 |
| 20260906010107 | 82 | 0 | 0.0 | 0.9 | 0.00 | 0.10 | 0.10 | 66 | 1013.8 |
| 20260906005544 | 82 | 0 | 0.0 | 0.9 | 0.00 | 0.10 | 0.10 | 66 | 1013.8 |
| 20260906005043 | 82 | 179 | 0.0 | 1.7 | 0.00 | 0.10 | 0.10 | 65 | 1013.8 |
| 20260906004614 | 83 | 136 | 0.0 | 4.3 | 0.00 | 0.10 | 0.10 | 65 | 1013.8 |
| 20260906004043 | 83 | 27 | 0.0 | 4.3 | 0.00 | 0.10 | 0.10 | 66 | 1013.8 |
| 20260906003547 | 83 | 10 | 0.9 | 1.7 | 0.00 | 0.10 | 0.10 | 68 | 1014.0 |
| 20260906003059 | 84 | 0 | 0.0 | 1.7 | 0.00 | 0.10 | 0.10 | 67 | 1014.2 |
| 20260906002543 | 84 | 0 | 0.0 | 3.5 | 0.00 | 0.10 | 0.10 | 66 | 1014.2 |
| 20260906002045 | 84 | 217 | 0.0 | 8.7 | 0.00 | 0.10 | 0.10 | 67 | 1014.2 |
| 20260906001604 | 85 | 0 | 2.6 | 8.7 | 0.00 | 0.10 | 0.10 | 66 | 1014.3 |
| 20260906001045 | 85 | 161 | 0.9 | 5.2 | 0.00 | 0.10 | 0.10 | 65 | 1014.3 |
| 20260906000544 | 85 | 34 | 0.9 | 4.3 | 0.01 | 0.10 | 0.10 | 69 | 1014.2 |
| 20260906000109 | 85 | 0 | 0.0 | 1.7 | 0.02 | 0.10 | 0.10 | 66 | 1013.8 |
| 20260905235544 | 84 | 0 | 0.0 | 1.7 | 0.06 | 0.10 | 0.10 | 74 | 1013.7 |
| 20260905235043 | 83 | 252 | 0.0 | 0.0 | 0.10 | 0.10 | 0.10 | 73 | 1013.7 |
| 20260905234604 | 82 | 0 | 0.0 | 0.9 | 0.10 | 0.10 | 0.10 | 71 | 1013.5 |
| 20260905234044 | 81 | 0 | 0.0 | 0.9 | 0.10 | 0.10 | 0.10 | 76 | 1013.5 |
| 20260905233544 | 81 | 0 | 0.0 | 0.9 | 0.10 | 0.10 | 0.10 | 79 | 1013.4 |
| 20260905233109 | 80 | 0 | 0.0 | 0.9 | 0.10 | 0.10 | 0.10 | 80 | 1013.5 |
| 20260905232545 | 81 | 0 | 0.0 | 0.9 | 0.10 | 0.10 | 0.10 | 78 | 1013.5 |
| 20260905232046 | 80 | 150 | 0.0 | 1.7 | 0.10 | 0.10 | 0.10 | 71 | 1013.5 |
| 20260905231602 | 80 | 0 | 0.0 | 6.1 | 0.10 | 0.10 | 0.10 | 72 | 1013.7 |
| 20260905231356 | 80 | 318 | 0.9 | 13.0 | 0.10 | 0.10 | 0.10 | 66 | 1013.8 |
| 20260905230543 | 82 | 38 | 6.1 | 18.2 | 0.09 | 0.09 | 0.09 | 58 | 1013.9 |
| 20260905230110 | 83 | 45 | 10.4 | 20.9 | 0.08 | 0.08 | 0.08 | 60 | 1013.8 |
| 20260905225543 | 85 | 15 | 13.0 | 20.9 | 0.04 | 0.04 | 0.04 | 57 | 1013.8 |
| 20260905225043 | 94 | 38 | 6.1 | 12.2 | 0.00 | 0.00 | 0.00 | 50 | 1013.9 |
| 20260905224608 | 97 | 28 | 3.5 | 9.6 | 0.00 | 0.00 | 0.00 | 40 | 1013.6 |
| 20260905224042 | 97 | 328 | 1.7 | 3.5 | 0.00 | 0.00 | 0.00 | 38 | 1013.4 |
| 20260905223541 | 98 | 49 | 0.0 | 3.5 | 0.00 | 0.00 | 0.00 | 40 | 1013.3 |
| 20260905223107 | 98 | 338 | 0.0 | 3.5 | 0.00 | 0.00 | 0.00 | 38 | 1013.2 |
| 20260905222542 | 98 | 5 | 1.7 | 3.5 | 0.00 | 0.00 | 0.00 | 38 | 1013.3 |
| 20260905222044 | 98 | 85 | 0.0 | 2.6 | 0.00 | 0.00 | 0.00 | 38 | 1013.3 |
| 20260905221606 | 98 | 0 | 0.0 | 2.6 | 0.00 | 0.00 | 0.00 | 38 | 1013.3 |
| 20260905221042 | 98 | 281 | 0.9 | 2.6 | 0.00 | 0.00 | 0.00 | 37 | 1013.2 |
| 20260905220541 | 99 | 273 | 0.0 | 3.5 | 0.00 | 0.00 | 0.00 | 38 | 1013.3 |
| 20260905220123 | 98 | 286 | 0.0 | 4.3 | 0.00 | 0.00 | 0.00 | 38 | 1013.3 |
| 20260905215542 | 98 | 15 | 1.7 | 6.1 | 0.00 | 0.00 | 0.00 | 37 | 1013.4 |
| 20260905215042 | 99 | 12 | 1.7 | 6.1 | 0.00 | 0.00 | 0.00 | 36 | 1013.4 |
| 20260905214606 | 100 | 275 | 0.9 | 6.1 | 0.00 | 0.00 | 0.00 | 36 | 1013.4 |
| 20260905214043 | 100 | 0 | 0.9 | 4.3 | 0.00 | 0.00 | 0.00 | 36 | 1013.4 |
| 20260905213542 | 100 | 139 | 0.9 | 5.2 | 0.00 | 0.00 | 0.00 | 36 | 1013.3 |
| 20260905213108 | 100 | 271 | 1.7 | 5.2 | 0.00 | 0.00 | 0.00 | 36 | 1013.3 |
| 20260905212545 | 100 | 230 | 0.9 | 5.2 | 0.00 | 0.00 | 0.00 | 36 | 1013.4 |
| 20260905212041 | 100 | 227 | 0.9 | 6.1 | 0.00 | 0.00 | 0.00 | 35 | 1013.5 |
| 20260905211610 | 100 | 269 | 1.7 | 6.1 | 0.00 | 0.00 | 0.00 | 35 | 1013.5 |
| 20260905211042 | 101 | 272 | 0.0 | 4.3 | 0.00 | 0.00 | 0.00 | 35 | 1013.6 |
| 20260905210544 | 101 | 0 | 0.9 | 4.3 | 0.00 | 0.00 | 0.00 | 37 | 1013.6 |
| 20260905205545 | 100 | 141 | 0.0 | 1.7 | 0.00 | 0.00 | 0.00 | 39 | 1013.8 |
| 20260905205042 | 99 | 0 | 0.9 | 2.6 | 0.00 | 0.00 | 0.00 | 36 | 1013.9 |
| 20260905204607 | 99 | 192 | 0.9 | 2.6 | 0.00 | 0.00 | 0.00 | 37 | 1014.0 |
| 20260905204041 | 99 | 325 | 0.9 | 2.6 | 0.00 | 0.00 | 0.00 | 38 | 1014.0 |
| 20260905203542 | 98 | 147 | 0.9 | 2.6 | 0.00 | 0.00 | 0.00 | 36 | 1014.1 |
| 20260905203103 | 97 | 135 | 0.0 | 1.7 | 0.00 | 0.00 | 0.00 | 37 | 1014.2 |
| 20260905202544 | 98 | 302 | 0.0 | 1.7 | 0.00 | 0.00 | 0.00 | 37 | 1014.2 |
| 20260905202042 | 99 | 227 | 0.0 | 4.3 | 0.00 | 0.00 | 0.00 | 37 | 1014.3 |
| 20260905201601 | 98 | 324 | 0.9 | 4.3 | 0.00 | 0.00 | 0.00 | 41 | 1014.3 |
| 20260905201043 | 98 | 322 | 1.7 | 4.3 | 0.00 | 0.00 | 0.00 | 39 | 1014.4 |
| 20260905200543 | 98 | 17 | 1.7 | 4.3 | 0.00 | 0.00 | 0.00 | 40 | 1014.6 |
| 20260905200101 | 99 | 0 | 0.0 | 3.5 | 0.00 | 0.00 | 0.00 | 39 | 1014.6 |
| 20260905195543 | 98 | 0 | 0.0 | 3.5 | 0.00 | 0.00 | 0.00 | 40 | 1014.6 |
| 20260905195043 | 97 | 0 | 2.6 | 4.3 | 0.00 | 0.00 | 0.00 | 39 | 1014.7 |
| 20260905194604 | 97 | 321 | 0.9 | 4.3 | 0.00 | 0.00 | 0.00 | 39 | 1014.8 |
| 20260905194044 | 97 | 136 | 0.9 | 4.3 | 0.00 | 0.00 | 0.00 | 39 | 1014.9 |
| 20260905193543 | 98 | 24 | 1.7 | 6.1 | 0.00 | 0.00 | 0.00 | 40 | 1014.9 |
| 20260905193059 | 97 | 292 | 1.7 | 6.1 | 0.00 | 0.00 | 0.00 | 41 | 1015.0 |
| 20260905192544 | 97 | 216 | 1.7 | 3.5 | 0.00 | 0.00 | 0.00 | 41 | 1015.0 |
| 20260905192043 | 97 | 0 | 0.9 | 6.1 | 0.00 | 0.00 | 0.00 | 41 | 1015.1 |
| 20260905191600 | 96 | 15 | 0.9 | 6.1 | 0.00 | 0.00 | 0.00 | 41 | 1015.3 |
| 20260905191043 | 96 | 350 | 0.9 | 2.6 | 0.00 | 0.00 | 0.00 | 43 | 1015.4 |
| 20260905190544 | 96 | 320 | 0.9 | 3.5 | 0.00 | 0.00 | 0.00 | 43 | 1015.4 |
| 20260905185544 | 94 | 338 | 0.0 | 7.0 | 0.00 | 0.00 | 0.00 | 46 | 1015.8 |
| 20260905185044 | 94 | 304 | 0.0 | 7.0 | 0.00 | 0.00 | 0.00 | 45 | 1015.8 |
| 20260905184608 | 95 | 12 | 1.7 | 7.0 | 0.00 | 0.00 | 0.00 | 44 | 1015.8 |
| 20260905184044 | 96 | 27 | 1.7 | 9.6 | 0.00 | 0.00 | 0.00 | 44 | 1015.9 |
| 20260905183545 | 97 | 311 | 3.5 | 9.6 | 0.00 | 0.00 | 0.00 | 45 | 1016.0 |
| 20260905183124 | 97 | 0 | 2.6 | 7.0 | 0.00 | 0.00 | 0.00 | 42 | 1016.0 |
| 20260905182543 | 97 | 271 | 0.9 | 5.2 | 0.00 | 0.00 | 0.00 | 44 | 1016.1 |
| 20260905182044 | 97 | 246 | 0.9 | 5.2 | 0.00 | 0.00 | 0.00 | 44 | 1016.0 |
| 20260905181604 | 98 | 254 | 0.9 | 5.2 | 0.00 | 0.00 | 0.00 | 44 | 1016.2 |
| 20260905181044 | 97 | 134 | 0.0 | 3.5 | 0.00 | 0.00 | 0.00 | 43 | 1016.2 |
| 20260905180544 | 96 | 142 | 0.9 | 7.8 | 0.00 | 0.00 | 0.00 | 44 | 1016.3 |
| 20260905180058 | 96 | 92 | 0.9 | 7.8 | 0.00 | 0.00 | 0.00 | 46 | 1016.4 |
| 20260905175544 | 95 | 348 | 3.5 | 7.8 | 0.00 | 0.00 | 0.00 | 46 | 1016.4 |
| 20260905175045 | 95 | 32 | 2.6 | 7.0 | 0.00 | 0.00 | 0.00 | 44 | 1016.5 |
| 20260905174605 | 95 | 279 | 1.7 | 7.0 | 0.00 | 0.00 | 0.00 | 46 | 1016.6 |
| 20260905174044 | 95 | 312 | 0.9 | 6.1 | 0.00 | 0.00 | 0.00 | 46 | 1016.7 |
| 20260905173544 | 95 | 292 | 1.7 | 7.0 | 0.00 | 0.00 | 0.00 | 47 | 1016.8 |
| 20260905173100 | 94 | 304 | 0.9 | 7.0 | 0.00 | 0.00 | 0.00 | 49 | 1016.8 |
| 20260905172546 | 94 | 316 | 2.6 | 7.0 | 0.00 | 0.00 | 0.00 | 47 | 1016.9 |
| 20260905172044 | 94 | 288 | 0.9 | 7.8 | 0.00 | 0.00 | 0.00 | 49 | 1017.0 |
| 20260905171604 | 94 | 264 | 2.6 | 11.3 | 0.00 | 0.00 | 0.00 | 50 | 1017.0 |
| 20260905171042 | 94 | 281 | 3.5 | 11.3 | 0.00 | 0.00 | 0.00 | 49 | 1017.0 |
| 20260905170543 | 94 | 244 | 0.9 | 7.8 | 0.00 | 0.00 | 0.00 | 52 | 1017.1 |
| 20260905170104 | 93 | 336 | 1.7 | 7.8 | 0.00 | 0.00 | 0.00 | 50 | 1017.2 |
| 20260905165542 | 93 | 321 | 1.7 | 7.8 | 0.00 | 0.00 | 0.00 | 51 | 1017.3 |